Location: Écuvilly
(49.6505°N, 2.9206°E)
Time: 07:06:43
(UTC+00:00)

Cosmos 1656 Rocket - Pass Details

Date: 17 November 2025
Orbit: 792 x 846 km, 71.1° (Epoch: 17 December)

Event Time Altitude Azimuth Distance (km) Brightness Sun altitude
Rises 18:21:49 0° 187° (S) 3,327 6.9 -22.2°
Reaches altitude 10° 18:24:17 10° 181° (S) 2,408 6.1 -22.6°
Enters shadow 18:28:37 42° 137° (SE) 1,161 4.1 -23.3°
